This is the latest recevied weather packets stored in our database for station/object 7L2IWN-13. If no packets are shown the sender has not sent any weather packets the latest 10 day(s).
| Time | Temp. | Humidity | Pressure | Rain* | Wind** | Luminosity | Snow |
|---|---|---|---|---|---|---|---|
| 1777925897 | 8.33° C | 73% | 1016.5 hPa | 0 mm | - | - | - |
| 1777925177 | 8.33° C | 73% | 1016.1 hPa | 0 mm | - | - | - |
| 1777924457 | 7.78° C | 72% | 1015.9 hPa | 0 mm | - | - | - |
| 1777923738 | 7.78° C | 74% | 1015.5 hPa | 0 mm | - | - | - |
| 1777923017 | 8.33° C | 75% | 1015.6 hPa | 0 mm | - | - | - |
| 1777922297 | 8.33° C | 74% | 1015.6 hPa | 0 mm | - | - | - |
| 1777921579 | 8.33° C | 72% | 1015.1 hPa | 0 mm | - | - | - |
| 1777920857 | 8.89° C | 73% | 1015.2 hPa | 0 mm | - | - | - |
| 1777920138 | 9.44° C | 72% | 1015.1 hPa | 0 mm | - | - | - |
| 1777919416 | 10° C | 68% | 1014.8 hPa | 0 mm | - | - | - |
| 1777918698 | 10.56° C | 63% | 1014.8 hPa | 0 mm | - | - | - |
| 1777917979 | 10.56° C | 60% | 1014.6 hPa | 0 mm | - | - | - |
| 1777917259 | 11.67° C | 54% | 1014.3 hPa | 0 mm | - | - | - |
| 1777916537 | 11.67° C | 57% | 1014 hPa | 0 mm | - | - | - |
| 1777915816 | 11.67° C | 57% | 1014 hPa | 0 mm | - | - | - |
| 1777915096 | 12.22° C | 58% | 1013.9 hPa | 0 mm | - | - | - |
| 1777913658 | 12.22° C | 56% | 1013.3 hPa | 0 mm | - | - | - |
| 1777912217 | 12.78° C | 56% | 1012.4 hPa | 0 mm | - | - | - |
| 1777911497 | 12.78° C | 56% | 1012.4 hPa | 0 mm | - | - | - |
| 1777910776 | 13.33° C | 55% | 1012 hPa | 0 mm | - | - | - |
| 1777910056 | 13.33° C | 55% | 1011.9 hPa | 0 mm | - | - | - |
| 1777909338 | 13.33° C | 55% | 1011.4 hPa | 0 mm | - | - | - |
| 1777908617 | 13.33° C | 55% | 1011.1 hPa | 0 mm | - | - | - |
| 1777907897 | 13.89° C | 55% | 1011 hPa | 0 mm | - | - | - |
| 1777907177 | 13.89° C | 56% | 1010.3 hPa | 0 mm | - | - | - |
* Rain latest hour (hover to see other rain measurements)
** Current wind speed in m/s (hover to see current wind gust speed)